User: anonymous   Login
Location: Ago
(8.4667°N, 4.4167°E)
Time: 16:05:40
(UTC+00:00)
Language:

STARLINK-1076 - Orbit

View from above orbital plane
View from above orbital plane
View from above satellite
View from above satellite

Ground track
Ground track

The orbit data is extracted from the following two-line orbital elements,

1 44959C 20001AX  20225.49625470  .00003130  00000-0  21438-3 0  2252
2 44959  52.9980  82.9665 0001362  93.9786 331.1546 15.05572916    11
Epoch (UTC): 12 August 2020 11:54:36
Eccentricity: 0.0001362
inclination: 52.9980°
perigee height: 549 km
apogee height: 550 km
right ascension of ascending node: 82.9665°
argument of perigee: 93.9786°
revolutions per day: 15.05572916
mean anomaly at epoch: 331.1546°
orbit number at epoch: 1

The dashed part of the orbit path shows where the satellite is in the earth's shadow,  

DLR